Prescott, AZ

3:19 PM MST on November 17, 2019 (GMT -0700)
Love

Weather History for KPRC - September, 2019

Change the Weather History Date:

Saturday, September 21, 2019

  Actual Average Record
Temperature  
Mean Temperature 61 °F 66 °F  
Max Temperature 78 °F 81 °F 92 °F (1954)
Min Temperature 44 °F 51 °F 35 °F (1978)
Degree Days  
Heating Degree Days 4    
Month to date heating degree days 5  
Since 1 July heating degree days 5  
Cooling Degree Days 0    
Month to date cooling degree days 155  
Year to date cooling degree days 1130  
Growing Degree Days 11 (Base 50)    
Moisture  
Dew Point 20 °F    
Average Humidity 25    
Maximum Humidity 50    
Minimum Humidity 7    
Precipitation  
Precipitation 0.00 in 0.05 in 0.27 in (1952)
Month to date precipitation 1.39 1.12  
Year to date precipitation 9.50 10.78  
Sea Level Pressure  
Sea Level Pressure 29.90 in    
Wind  
Wind Speed 5 mph ()    
Max Wind Speed 15 mph    
Max Gust Speed 21 mph    
Visibility 10.0 miles    
Events      
T = Trace of Precipitation, MM = Missing Value Source: Averaged Metar Reports

Daily Weather History Graph

Daily Weather History Graph

Search for Another Location

Airport or City:

Astronomy

Sep. 21, 2019 Rise Set
Actual Time 6:16 AM MST 6:28 PM MST
Civil Twilight 5:51 AM MST 6:53 PM MST
Nautical Twilight 5:22 AM MST 7:22 PM MST
Astronomical Twilight 4:52 AM MST 7:52 PM MST
Moon 11:24 PM MST (9/21) 1:11 PM MST (9/21)
Length of Visible Light 13h 01m
Length of Day
12h 11m
Waning Gibbous, 53% of the Moon is Illuminated
Sep 21
Waning Gibbous
Sep 21
Last Quarter
Sep 28
New
Oct 5
First Quarter
Oct 13
Full

Hourly Weather History & Observations

Time (MST) Temp. Windchill Dew Point Humidity Pressure Visibility Wind Dir Wind Speed Gust Speed Precip Events Conditions
12:53 AM 48.9 °F - 30.0 °F 48% 29.87 in 10.0 mi South 5.8 mph - N/A   Clear
1:53 AM 50.0 °F - 24.1 °F 36% 29.87 in 10.0 mi SSW 6.9 mph - N/A   Clear
2:53 AM 48.0 °F - 25.0 °F 41% 29.87 in 10.0 mi South 6.9 mph - N/A   Clear
3:53 AM 46.9 °F - 25.0 °F 42% 29.88 in 10.0 mi Calm Calm - N/A   Clear
4:53 AM 46.0 °F 42.5 °F 25.0 °F 44% 29.89 in 10.0 mi West 6.9 mph - N/A   Clear
5:53 AM 45.0 °F 41.2 °F 24.1 °F 44% 29.91 in 10.0 mi South 6.9 mph - N/A   Clear
6:53 AM 45.0 °F 43.5 °F 23.0 °F 42% 29.93 in 10.0 mi SSW 3.5 mph - N/A   Clear
7:53 AM 55.9 °F - 23.0 °F 28% 29.94 in 10.0 mi Calm Calm - N/A   Clear
8:53 AM 61.0 °F - 23.0 °F 23% 29.94 in 10.0 mi Calm Calm - N/A   Clear
9:53 AM 66.9 °F - 24.1 °F 20% 29.94 in 10.0 mi NE 4.6 mph - N/A   Clear
10:53 AM 72.0 °F - 21.9 °F 15% 29.92 in 10.0 mi NW 6.9 mph - N/A   Clear
11:53 AM 73.9 °F - 15.1 °F 11% 29.91 in 10.0 mi South 6.9 mph - N/A   Clear
12:53 PM 75.9 °F - 12.9 °F 9% 29.89 in 10.0 mi SSW 9.2 mph - N/A   Clear
1:53 PM 75.9 °F - 8.1 °F 7% 29.87 in 10.0 mi South 10.4 mph - N/A   Clear
2:53 PM 77.0 °F - 10.9 °F 8% 29.86 in 10.0 mi West 6.9 mph - N/A   Clear
3:53 PM 75.9 °F - 10.0 °F 8% 29.86 in 10.0 mi West 9.2 mph - N/A   Clear
4:53 PM 75.0 °F - 12.0 °F 9% 29.87 in 10.0 mi SW 8.1 mph - N/A   Clear
5:53 PM 73.0 °F - 12.9 °F 10% 29.89 in 10.0 mi WSW 9.2 mph - N/A   Clear
6:53 PM 68.0 °F - 17.1 °F 14% 29.91 in 10.0 mi SW 9.2 mph - N/A   Clear
7:53 PM 63.0 °F - 19.9 °F 19% 29.91 in 10.0 mi SSW 9.2 mph - N/A   Clear
8:53 PM 61.0 °F - 21.0 °F 21% 29.93 in 10.0 mi South 6.9 mph - N/A   Clear
9:53 PM 57.9 °F - 25.0 °F 28% 29.93 in 10.0 mi Calm Calm - N/A   Clear
10:53 PM 55.9 °F - 25.0 °F 30% 29.94 in 10.0 mi South 5.8 mph - N/A   Clear
11:53 PM 51.1 °F - 30.9 °F 46% 29.94 in 10.0 mi South 4.6 mph - N/A   Clear